Beckley, WV

4:48 PM EST on December 06, 2019 (GMT -0500)
Raleigh County Memorial

Weather History for KBKW - June, 2019

Change the Weather History Date:

Wednesday, June 12, 2019

  Actual Average Record
Temperature  
Mean Temperature 61 °F 67 °F  
Max Temperature 71 °F 76 °F 90 °F (1947)
Min Temperature 50 °F 57 °F 38 °F (1910)
Degree Days  
Heating Degree Days 4 1  
Month to date heating degree days 19 27  
Since 1 June heating degree days 19 27  
Since 1 July heating degree days 4770 5328  
Cooling Degree Days 0 3  
Month to date cooling degree days 19 30  
Year to date cooling degree days 139 71  
Since 1 June cooling degree days 19 30  
Growing Degree Days 10 (Base 50)    
Moisture  
Dew Point 48 °F    
Average Humidity 65    
Maximum Humidity 83    
Minimum Humidity 47    
Precipitation  
Precipitation T in 0.12 in 1.48 in (1915)
Month to date precipitation 1.96 1.61  
Year to date precipitation 22.30 18.77  
Sea Level Pressure  
Sea Level Pressure 30.03 in    
Wind  
Wind Speed 11 mph (SE)    
Max Wind Speed 21 mph    
Max Gust Speed 31 mph    
Visibility 10 miles    
Events      
T = Trace of Precipitation, MM = Missing Value Source: NWS Daily Summary

Daily Weather History Graph

Daily Weather History Graph

Search for Another Location

Airport or City:

Astronomy

Jun. 12, 2019 Rise Set
Actual Time 6:01 AM EDT 8:46 PM EDT
Civil Twilight 5:30 AM EDT 9:18 PM EDT
Nautical Twilight 4:51 AM EDT 9:57 PM EDT
Astronomical Twilight 4:07 AM EDT 10:41 PM EDT
Moon 3:58 PM EDT (6/12) 3:09 AM EDT (6/12)
Length of Visible Light 15h 47m
Length of Day
14h 44m
Waxing Gibbous, 76% of the Moon is Illuminated
Jun 12
Waxing Gibbous
Jun 17
Full
Jun 25
Last Quarter
Jul 2
New
Jul 9
First Quarter

Hourly Weather History & Observations

Time (EDT) Temp. Dew Point Humidity Pressure Visibility Wind Dir Wind Speed Gust Speed Precip Events Conditions
12:51 AM 53.1 °F 46.9 °F 80% 30.13 in 10.0 mi Calm Calm - N/A   Clear
1:51 AM 51.1 °F 46.9 °F 86% 30.12 in 10.0 mi Calm Calm - N/A   Clear
2:51 AM 51.1 °F 46.9 °F 86% 30.11 in 10.0 mi Calm Calm - N/A   Clear
3:51 AM 52.0 °F 46.9 °F 83% 30.09 in 10.0 mi Calm Calm - N/A   Clear
4:51 AM 55.0 °F 46.0 °F 72% 30.09 in 10.0 mi SE 10.4 mph 17.3 mph N/A   Clear
5:51 AM 55.9 °F 45.0 °F 67% 30.09 in 10.0 mi SE 10.4 mph - N/A   Clear
6:51 AM 55.0 °F 46.0 °F 72% 30.09 in 10.0 mi SE 13.8 mph - N/A   Clear
7:51 AM 55.9 °F 46.0 °F 69% 30.09 in 10.0 mi SE 10.4 mph 18.4 mph N/A   Clear
8:51 AM 60.1 °F 48.0 °F 64% 30.11 in 10.0 mi SE 9.2 mph - N/A   Clear
9:51 AM 63.0 °F 46.9 °F 56% 30.10 in 10.0 mi SE 17.3 mph 25.3 mph N/A   Clear
10:51 AM 64.0 °F 46.9 °F 54% 30.08 in 10.0 mi SE 17.3 mph 28.8 mph N/A   Clear
11:51 AM 66.9 °F 48.0 °F 51% 30.06 in 10.0 mi SSE 12.7 mph 24.2 mph N/A   Clear
12:51 PM 68.0 °F 48.9 °F 50% 30.04 in 10.0 mi SSE 13.8 mph 24.2 mph N/A   Clear
1:51 PM 70.0 °F 48.9 °F 47% 30.03 in 10.0 mi SSE 12.7 mph 24.2 mph N/A   Clear
2:51 PM 70.0 °F 48.9 °F 47% 30.01 in 10.0 mi South 13.8 mph 21.9 mph N/A   Clear
3:13 PM 71.1 °F 51.1 °F 49% 30.05 in 10.0 mi ESE 17.3 mph 23.0 mph N/A   Clear
3:51 PM 70.0 °F 48.0 °F 46% 29.99 in 10.0 mi SSE 16.1 mph 24.2 mph N/A   Partly Cloudy
4:51 PM 68.0 °F 48.0 °F 49% 29.97 in 10.0 mi SE 8.1 mph 18.4 mph N/A   Scattered Clouds
5:51 PM 66.9 °F 48.9 °F 52% 29.94 in 10.0 mi SE 15.0 mph 20.7 mph N/A   Overcast
6:51 PM 66.0 °F 48.0 °F 52% 29.93 in 10.0 mi SSE 10.4 mph - 0.00 in   Overcast
7:51 PM 64.0 °F 48.0 °F 56% 29.92 in 10.0 mi SSE 12.7 mph 18.4 mph N/A   Mostly Cloudy
8:51 PM 62.1 °F 48.9 °F 62% 29.90 in 10.0 mi SSE 12.7 mph 23.0 mph N/A   Overcast
9:51 PM 60.1 °F 50.0 °F 69% 29.90 in 10.0 mi SSE 13.8 mph 24.2 mph N/A   Clear
10:51 PM 59.0 °F 48.0 °F 67% 29.91 in 10.0 mi SSE 11.5 mph 24.2 mph N/A   Clear
11:51 PM 57.9 °F 50.0 °F 75% 29.89 in 10.0 mi SSE 11.5 mph 20.7 mph N/A   Mostly Cloudy